TimeEDT,TemperatureF,Dew PointF,Humidity,Sea Level PressureIn,VisibilityMPH,Wind Direction,Wind SpeedMPH,Gust SpeedMPH,PrecipitationIn,Events,Conditions,WindDirDegrees,DateUTC
12:54 AM,70.0,70.0,100,30.01,4.0,Calm,Calm,-,N/A,,Partly Cloudy,0,2013-09-09 04:54:00
1:54 AM,69.1,69.1,100,30.02,1.0,Calm,Calm,-,N/A,,Scattered Clouds,0,2013-09-09 05:54:00
2:23 AM,68.0,68.0,100,30.05,1.0,Calm,Calm,-,N/A,,Mostly Cloudy,0,2013-09-09 06:23:00
2:54 AM,68.0,68.0,100,30.01,1.0,Calm,Calm,-,N/A,,Mostly Cloudy,0,2013-09-09 06:54:00
3:54 AM,66.9,66.9,100,30.02,1.0,Calm,Calm,-,N/A,,Mostly Cloudy,0,2013-09-09 07:54:00
4:54 AM,66.0,66.0,100,30.02,1.0,Calm,Calm,-,N/A,,Mostly Cloudy,0,2013-09-09 08:54:00
5:54 AM,66.9,66.9,100,30.04,1.0,Calm,Calm,-,N/A,,Overcast,0,2013-09-09 09:54:00
6:54 AM,66.0,66.0,100,30.06,3.0,Calm,Calm,-,N/A,,Mostly Cloudy,0,2013-09-09 10:54:00
7:54 AM,66.9,66.9,100,30.07,3.0,Calm,Calm,-,N/A,,Scattered Clouds,0,2013-09-09 11:54:00
8:54 AM,69.1,68.0,96,30.07,3.0,Calm,Calm,-,N/A,,Partly Cloudy,0,2013-09-09 12:54:00
9:54 AM,73.9,69.1,85,30.09,8.0,Calm,Calm,-,N/A,,Clear,0,2013-09-09 13:54:00
10:54 AM,79.0,68.0,69,30.09,10.0,SSE,4.6,-,N/A,,Partly Cloudy,160,2013-09-09 14:54:00
11:54 AM,82.0,68.0,62,30.08,10.0,Variable,3.5,-,N/A,,Partly Cloudy,0,2013-09-09 15:54:00
12:54 PM,84.9,68.0,57,30.06,10.0,South,6.9,-,N/A,,Scattered Clouds,190,2013-09-09 16:54:00
1:54 PM,87.1,66.9,51,30.06,10.0,WSW,4.6,-,N/A,,Scattered Clouds,250,2013-09-09 17:54:00
2:54 PM,86.0,66.9,53,30.04,10.0,SW,3.5,-,N/A,,Scattered Clouds,230,2013-09-09 18:54:00
3:54 PM,89.1,66.9,48,30.03,10.0,West,4.6,-,N/A,,Scattered Clouds,260,2013-09-09 19:54:00
4:54 PM,88.0,64.9,46,30.01,10.0,South,8.1,-,N/A,,Scattered Clouds,180,2013-09-09 20:54:00
5:54 PM,87.1,66.0,49,30.01,10.0,SW,6.9,-,N/A,,Partly Cloudy,230,2013-09-09 21:54:00
6:54 PM,84.0,66.9,56,30.01,10.0,SW,3.5,-,N/A,,Partly Cloudy,220,2013-09-09 22:54:00
7:54 PM,78.1,73.0,84,30.03,9.0,Calm,Calm,-,N/A,,Clear,0,2013-09-09 23:54:00
8:54 PM,75.0,72.0,90,30.04,10.0,Calm,Calm,-,N/A,,Clear,0,2013-09-10 00:54:00
9:54 PM,73.9,72.0,93,30.06,7.0,Calm,Calm,-,N/A,,Clear,0,2013-09-10 01:54:00
10:54 PM,73.0,72.0,96,30.06,6.0,Calm,Calm,-,N/A,,Scattered Clouds,0,2013-09-10 02:54:00
11:54 PM,72.0,72.0,100,30.07,5.0,Calm,Calm,-,N/A,,Scattered Clouds,0,2013-09-10 03:54:00